This demonstration page uses our WeatherBlox Daily Observations layout. Learn more.

Left ArrowRight Arrow

39.01783, -85.05884

Hourly Observations for March 19, 2020

Temp ( °F °C ) Dew Point ( °F °C ) Humidity (%) Winds ( mph kmh ) Pressure ( in mb ) Visibility ( mi km ) Precip ( " mm )
12:09 am 00:09 Cloudy with Light Rain 60 15.6 57 13.9 90 90 W 14 22 30.06 1018 9 14 0.00 0.00
12:52 am 00:52 Cloudy 59 15 57 13.9 93 93 WSW 7 11 30.05 1018 3 5 0.00 0.00
12:59 am 00:59 Cloudy 59 15 57 13.9 93 93 WSW 7 11 30.05 1018 10 16 0.00 0.00
1:17 am 01:17 Cloudy 59 15 56 13.3 90 90 W 7 11 30.06 1018 10 16 0.00 0.00
1:44 am 01:44 Cloudy with Light Rain 59 15 57 13.9 93 93 WSW 6 9 30.08 1019 6 10 0.01 0.25
1:52 am 01:52 Cloudy 59 15 57 13.9 93 93 WSW 6 9 30.08 1019 10 16 0.01 0.25
2:08 am 02:08 Cloudy 59 15 57 13.9 93 93 W 7 11 30.08 1019 10 16 0.00 0.00
2:52 am 02:52 Cloudy 59 15 56 13.3 90 90 WSW 6 9 30.09 1019 10 16 0.00 0.00
3:29 am 03:29 Cloudy 59 15 56 13.3 90 90 W 6 9 30.10 1019 9 14 0.00 0.00
3:52 am 03:52 Cloudy 58 14.4 56 13.3 93 93 WSW 5 7 30.11 1020 9 14 0.00 0.00
4:18 am 04:18 Cloudy 56 13.3 53 11.7 90 90 NW 8 13 30.13 1020 10 16 0.00 0.00
4:47 am 04:47 Cloudy 55 13 54 12 94 94 WNW 7 11 30.13 1020 10 16 0.00 0.00
4:52 am 04:52 Cloudy 56 13.3 53 11.7 90 90 NW 8 13 30.12 1020 10 16 0.00 0.00
5:52 am 05:52 Cloudy 55 12.8 52 11.1 90 90 NW 5 7 30.12 1020 10 16 0.00 0.00
6:52 am 06:52 Mostly Cloudy 55 12.8 52 11.1 90 90 Calm 30.13 1020 9 14 0.00 0.00
7:27 am 07:27 Mostly Cloudy 53 11.7 51 10.6 93 93 E 5 7 30.14 1021 8 13 0.00 0.00
7:42 am 07:42 Mostly Cloudy 54 12.2 51 10.6 90 90 E 7 11 30.14 1021 7 11 0.00 0.00
7:52 am 07:52 Cloudy with Mist and Fog 53 11.7 51 10.6 93 93 E 6 9 30.13 1020 5 8 0.00 0.00
8:16 am 08:16 Cloudy with Mist and Fog 54 12.2 52 11.1 93 93 E 6 9 30.14 1021 3 4 0.00 0.00
8:30 am 08:30 Cloudy with Mist and Fog 54 12.2 52 11.1 93 93 E 6 9 30.14 1021 2 3 0.00 0.00
8:52 am 08:52 Cloudy with Mist and Fog 55 12.8 52 11.1 90 90 E 6 9 30.13 1020 2 3 0.00 0.00
9:52 am 09:52 Cloudy with Mist and Fog 56 13.3 53 11.7 90 90 ESE 7 11 30.13 1020 2 3 0.00 0.00
10:21 am 10:21 Cloudy with Mist and Fog 56 13.3 53 11.7 90 90 ESE 8 13 30.14 1021 2 3 0.00 0.00
10:52 am 10:52 Cloudy with Mist and Fog 57 13.9 54 12.2 90 90 ESE 9 15 30.11 1020 2 3 0.00 0.00
11:42 am 11:42 Cloudy with Mist and Fog 58 14.4 54 12.2 87 87 SE 10 17 30.12 1020 3 5 0.00 0.00
11:52 am 11:52 Cloudy with Mist and Fog 58 14.4 55 12.8 90 90 SE 12 19 30.10 1019 3 5 0.00 0.00
12:14 pm 12:14 Cloudy with Mist and Fog 59 15 55 12.8 87 87 SE 10 17 30.09 1019 3 5 0.00 0.00
12:52 pm 12:52 Cloudy 59 15 56 13.3 90 90 SE 7 11 30.06 1018 7 11 0.00 0.00
1:52 pm 13:52 Cloudy with Rain 61 16.1 58 14.4 90 90 SE 10 17 30.05 1018 3 5 0.04 1.02
1:58 pm 13:58 Cloudy with Heavy Rain 61 16.1 58 14.4 90 90 SE 9 15 30.05 1018 2 3 0.02 0.51
2:47 pm 14:47 Cloudy with Heavy Rain 63 17 59 15 88 88 SSE 10 17 30.04 1017 2 3 0.20 5.08
2:52 pm 14:52 Cloudy with Heavy Rain 62 16.7 59 15 90 90 SSE 10 17 30.02 1017 2 3 0.23 5.84
3:12 pm 15:12 Cloudy with Heavy Rain 62 16.7 60 15.6 93 93 SE 13 20 30.00 1016 2 3 0.12 3.05
3:25 pm 15:25 Cloudy with Rain 62 16.7 60 15.6 93 93 SE 10 17 29.99 1016 2 3 0.18 4.57
3:36 pm 15:36 Cloudy with Heavy Rain 62 16.7 60 15.6 93 93 SSE 10 17 29.98 1015 2 2 0.23 5.84
3:52 pm 15:52 Cloudy with Heavy Rain 62 16.7 59 15 90 90 SE 12 19 29.96 1015 2 3 0.34 8.64
4:07 pm 16:07 Cloudy with Heavy Rain 62 16.7 59 15 90 90 SSE 8 13 29.97 1015 1 2 0.13 3.30
4:14 pm 16:14 Cloudy with Rain 62 16.7 60 15.6 93 93 S 12 19 29.98 1015 2 3 0.21 5.33
4:16 pm 16:16 Cloudy with Heavy Rain 62 16.7 60 15.6 93 93 S 12 19 29.97 1015 1 2 0.22 5.59
4:31 pm 16:31 Cloudy with Light Rain 63 17.2 60 15.6 90 90 SW 7 11 29.99 1015 6 10 0.27 6.86
4:52 pm 16:52 Cloudy with Light Rain 64 17.8 61 16.1 90 90 SSW 9 15 29.97 1015 8 13 0.29 7.37
5:12 pm 17:12 Cloudy with Light Rain 64 17.8 61 16.1 90 90 SSW 10 17 29.95 1014 7 11 0.00 0.00
5:52 pm 17:52 Cloudy 65 18.3 62 16.7 90 90 SSW 10 17 29.95 1014 7 11 0.00 0.00
6:34 pm 18:34 Cloudy with Rain 65 18.3 62 16.7 90 90 S 12 19 29.93 1014 3 4 0.04 1.02
6:48 pm 18:48 Cloudy with Heavy Rain 64 18 63 17 94 94 S 8 13 29.93 1014 2 3 0.08 2.03
6:52 pm 18:52 Cloudy with Light Rain 65 18.3 63 17.2 93 93 SSW 8 13 29.93 1014 3 4 0.11 2.79
6:58 pm 18:58 Cloudy with Heavy Rain 65 18.3 63 17.2 93 93 SSW 6 9 29.93 1014 2 3 0.01 0.25
7:11 pm 19:11 Cloudy with Light Rain 66 18.9 63 17.2 90 90 S 15 24 29.94 1014 7 11 0.27 6.86
7:25 pm 19:25 Cloudy with Light Rain 65 18.3 63 17.2 93 93 SSW 9 15 29.94 1014 6 10 0.27 6.86
7:52 pm 19:52 Cloudy with Light Rain 66 18.9 62 16.7 87 87 SSW 12 19 29.95 1014 10 16 0.27 6.86
8:50 pm 20:50 Cloudy with Heavy Rain 66 19 63 17 88 88 SSW 14 22 29.94 1014 3 4 0.02 0.51
8:52 pm 20:52 Cloudy with Heavy Rain 66 18.9 62 16.7 87 87 SSW 12 19 29.95 1014 2 3 0.02 0.51
8:58 pm 20:58 Cloudy with Light Rain 65 18.3 62 16.7 90 90 SSW 10 17 29.94 1014 5 8 0.14 3.56
9:31 pm 21:31 Cloudy 67 19.4 62 16.7 84 84 SSW 16 26 29.92 1013 10 16 0.18 4.57
9:52 pm 21:52 Cloudy 67 19.4 62 16.7 84 84 SSW 18 30 29.92 1013 10 16 0.18 4.57
10:16 pm 22:16 Cloudy 67 19.4 62 16.7 84 84 SSW 20 31 29.93 1014 10 16 0.00 0.00
10:52 pm 22:52 Mostly Cloudy with Light Rain 67 19.4 62 16.7 84 84 SSW 21 33 29.94 1014 10 16 0.00 0.00
11:52 pm 23:52 Cloudy with Light Rain 66 18.9 62 16.7 87 87 SSW 16 26 29.94 1014 9 14 0.07 1.78

Powered by AerisWeather